Location: Leiter
(44.7178°N, 106.2687°W)
Time: 08:13:16
(UTC+00:00)

Oscar 19 - Visible Passes

Search period start: 25 June 2022 00:00
Search period end: 05 July 2022 00:00
Orbit: 772 x 790 km, 98.8° (Epoch: 24 June)

Date Brightness Start Highest point End Pass type
(mag) Time Alt. Az. Time Alt. Az. Time Alt. Az.
25 Jun 11.3 10:22:37 10° NNE 10:27:40 55° E 10:32:40 10° S visible
26 Jun 12.3 09:51:03 10° NE 09:55:28 29° E 09:59:51 10° SSE visible
27 Jun 13.1 09:20:16 10° NE 09:23:07 15° E 09:25:57 10° ESE visible
28 Jun 11.2 10:25:50 10° NNE 10:30:54 59° ESE 10:35:56 10° S visible
29 Jun 12.3 09:54:12 10° NE 09:58:43 30° E 10:03:11 10° SSE visible
30 Jun 13.1 09:23:18 10° NE 09:26:22 16° E 09:29:25 10° SE visible
01 Jul 11.1 10:29:02 10° NNE 10:34:08 63° ESE 10:39:12 10° S visible
02 Jul 12.2 09:57:22 10° NNE 10:01:57 32° E 10:06:30 10° SSE visible
03 Jul 13.0 09:26:22 10° NE 09:29:38 17° E 09:32:52 10° SE visible
04 Jul 11.0 10:32:14 10° NNE 10:37:22 67° ESE 10:42:26 10° S visible
